Wind_Speed
32 26 24 22 19 19 21 23 22 22 22 22 22 23 25 26 27 27 27 27 25 23 23 21 20 18 17 15 13 12 10 10 12 14 13 14 14 13 13 12 13 14 13
37 31 29 24 20 19 19 22 21 21 21 20 21 23 24 24 24 23 25 25 23 21 20 17 16 15 15 13 9 7 8 11 12 12 13 13 14 13 12 14 14 13 12
38 34 31 25 22 20 20 22 20 19 21 21 21 21 22 22 23 23 24 23 21 17 16 16 15 14 13 12 7 7 9 13 14 13 13 13 12 11 12 14 13 12 13
37 34 28 25 20 20 19 19 20 19 19 20 20 21 20 20 22 22 21 20 18 14 16 15 13 13 13 11 9 8 13 15 15 13 14 13 12 13 13 13 12 10 11
38 32 27 25 20 19 20 20 20 19 20 19 18 19 19 19 20 21 20 18 18 15 15 13 13 11 11 11 12 13 14 16 13 11 11 11 11 10 10 11 11 10 10
36 31 28 25 22 20 19 18 18 15 15 18 18 18 17 18 18 18 18 18 17 15 13 12 12 12 11 13 14 17 17 15 14 13 11 10 8 9 8 9 10 9 8
35 30 26 24 24 23 21 20 19 19 18 18 19 18 17 16 15 17 18 17 15 15 13 11 13 14 13 15 17 17 13 11 11 13 13 10 8 7 7 7 7 8 7
32 29 26 24 23 23 22 21 20 20 18 18 17 18 18 17 16 18 17 17 17 16 15 13 14 15 16 17 17 13 11 10 10 10 10 8 7 6 5 5 4 6 7
31 29 27 25 23 22 22 21 21 22 21 19 19 17 17 17 16 16 17 15 16 16 16 15 15 16 19 17 16 13 11 9 9 9 8 7 6 6 5 3 2 3 6
32 30 29 26 25 24 23 22 21 21 20 20 20 18 18 18 16 16 15 16 15 16 16 16 17 18 20 18 15 12 10 10 10 7 5 4 3 4 5 3 3 3 5
33 31 29 28 27 24 23 23 22 22 21 21 21 20 19 18 17 16 14 15 15 14 16 16 18 20 22 19 15 13 9 10 9 6 3 1 0 2 4 5 4 4 5
35 33 30 29 27 25 23 22 22 22 23 21 21 20 19 18 17 16 15 14 15 15 14 16 18 20 22 21 17 14 11 10 8 5 2 3 3 3 5 5 5 5 6
33 34 33 31 30 28 26 23 22 23 23 22 20 20 18 18 18 17 16 14 15 16 15 18 18 19 22 22 20 16 12 10 9 5 3 6 6 4 6 6 6 6 7
36 34 33 33 31 30 28 26 24 23 22 23 22 20 20 19 18 18 17 16 15 16 15 17 18 20 22 23 22 18 15 11 9 8 9 10 10 6 5 6 6 6 7
36 37 35 34 34 32 30 29 26 25 23 22 21 20 20 19 20 18 18 17 14 14 15 15 16 18 20 22 24 20 18 15 12 11 8 9 8 6 7 6 7 8 7
37 38 36 35 34 34 31 30 29 27 24 24 23 22 21 20 19 19 18 17 16 14 13 14 15 18 18 19 22 22 20 19 15 14 10 10 11 10 9 8 8 9 8
37 36 37 35 33 34 34 32 29 27 25 25 25 23 23 21 20 19 18 17 14 12 12 13 15 18 21 21 22 23 23 20 17 15 13 10 12 14 12 11 9 9 9
37 38 37 36 34 33 34 34 32 31 28 26 26 25 24 23 22 20 20 18 15 13 12 12 14 18 20 22 22 23 24 21 19 17 14 11 11 14 14 13 10 10 10
37 38 38 39 36 33 32 33 34 33 32 30 29 27 27 25 25 23 22 21 18 16 16 14 13 15 17 21 23 24 25 22 19 19 19 16 14 16 17 18 15 14 13
35 36 39 39 39 34 33 33 34 34 34 32 32 31 28 28 26 27 25 23 23 22 20 18 17 15 17 20 22 25 25 25 23 21 22 20 19 21 23 21 21 20 18
31 37 40 42 40 38 37 36 35 36 35 35 32 31 32 29 27 28 26 26 24 24 22 20 20 19 18 19 23 25 27 29 29 27 26 25 23 22 22 26 25 24 23
39 39 40 44 43 42 39 36 34 33 33 33 31 31 31 28 29 27 28 29 27 26 26 23 23 23 22 20 23 26 24 28 33 31 28 27 26 26 26 24 26 28 26
43 48 45 42 45 43 42 39 38 36 36 34 34 33 34 30 27 30 26 27 30 28 27 25 24 24 23 20 22 22 13 19 18 27 31 30 31 30 29 27 27 26 26
43 45 46 45 44 46 44 46 43 42 40 38 34 33 34 33 29 29 29 28 26 28 28 27 25 25 25 25 23 26 28 15 9 8 15 20 24 29 31 31 29 31 32
29 37 43 45 45 48 46 48 46 46 42 39 37 35 35 33 33 29 28 29 28 29 28 28 27 28 28 28 29 30 28 30 30 26 22 23 19 13 11 14 17 24 31
11 22 32 40 46 46 49 49 49 47 46 45 41 37 36 36 36 35 33 32 29 29 29 29 30 31 30 28 30 31 31 32 31 30 32 33 30 27 25 26 26 25 25
Wind_Direction
168 164 146 136 137 132 130 135 136 135 134 131 127 130 133 140 141 143 141 143 140 143 145 143 148 145 140 129 109 108 109 117 124 125 123 119 115 116 119 118 114 113 108
160 161 149 143 145 140 138 135 140 143 139 135 135 137 139 141 146 145 147 148 147 147 151 152 152 153 150 147 126 106 121 126 126 127 124 121 125 127 123 121 118 113 112
159 158 151 153 152 148 143 140 139 141 140 140 139 141 142 145 144 149 153 151 150 146 153 152 153 158 158 162 145 124 125 127 123 126 124 116 120 131 131 124 117 114 114
161 160 159 159 161 156 155 146 143 147 148 145 144 145 148 150 154 155 155 158 159 151 151 151 153 158 159 163 152 137 133 127 123 123 124 114 115 120 122 128 124 126 122
166 168 169 170 173 169 164 159 153 153 150 148 150 151 153 156 164 168 168 168 169 160 157 160 157 157 161 157 150 140 136 130 122 122 127 115 106 125 129 135 136 126 123
172 171 174 179 183 182 173 165 162 161 159 159 158 158 160 163 168 174 175 175 175 170 165 164 173 168 165 159 151 137 131 121 117 117 113 110 101 128 141 139 137 131 130
177 179 184 187 187 185 184 179 176 175 171 178 171 170 166 167 171 175 177 177 178 177 172 170 173 170 162 156 153 151 137 128 122 113 110 104 106 118 139 147 148 141 136
188 190 192 192 188 187 188 186 185 184 182 181 180 181 178 170 172 171 172 173 178 173 171 167 163 168 161 153 152 155 149 150 137 131 116 112 121 127 138 158 162 164 152
188 189 193 194 191 191 192 193 189 188 187 182 181 182 178 176 173 173 170 172 175 175 173 171 175 169 165 161 159 155 148 152 148 135 121 115 132 145 155 171 194 200 175
186 188 192 194 195 192 191 194 195 194 190 187 185 184 180 181 179 181 177 180 173 174 174 178 183 175 172 170 167 162 153 148 150 141 121 102 130 162 186 182 221 227 211
189 191 194 196 196 195 191 192 192 193 192 193 193 192 190 189 187 182 184 182 179 184 186 186 182 183 181 180 175 170 163 164 162 153 138 101 76 229 217 203 219 238 231
192 194 197 199 199 196 196 193 191 189 195 195 194 193 194 194 193 192 189 187 189 180 181 174 184 187 189 187 183 187 183 179 179 177 205 256 264 256 248 231 226 235 241
196 198 199 202 202 199 198 197 196 200 197 190 195 197 194 194 193 195 192 190 187 183 184 183 188 193 192 192 195 194 193 184 185 190 250 274 259 252 248 245 237 233 242
203 204 203 203 205 202 202 202 200 200 199 198 199 200 200 200 198 198 196 198 189 193 191 191 196 200 199 199 202 200 203 204 210 235 262 256 234 236 239 249 248 241 240
207 206 208 208 205 205 206 204 205 204 204 203 200 200 202 202 203 201 200 201 197 196 198 198 200 202 203 204 207 208 210 214 223 237 247 227 213 232 247 249 242 247 246
210 210 211 211 211 209 210 210 209 207 207 206 206 205 204 205 204 205 204 198 199 201 202 203 201 203 204 207 210 216 217 217 227 234 229 223 225 232 251 259 255 245 253
209 211 214 216 216 216 215 214 214 214 213 212 210 209 208 208 206 206 203 203 201 204 208 211 208 210 213 215 215 218 219 217 229 234 228 242 245 238 243 252 262 258 255
215 215 216 218 221 221 222 219 218 216 217 216 215 213 211 211 211 209 209 208 207 209 206 213 220 223 222 222 220 221 219 222 231 234 233 242 261 241 242 252 260 266 266
226 223 222 220 222 222 222 223 222 222 221 218 217 215 214 212 211 213 214 211 210 213 214 217 223 229 232 232 229 223 222 227 235 240 243 247 251 261 255 251 260 269 272
234 233 230 226 225 224 223 222 223 225 225 223 223 221 218 216 215 215 216 214 215 217 221 225 229 236 244 241 239 234 234 235 238 240 246 252 259 253 256 257 255 266 269
251 238 235 228 226 224 223 220 219 224 225 224 223 223 221 218 217 218 220 220 221 225 229 231 237 242 248 243 241 240 238 238 241 244 247 252 257 257 262 253 252 257 265
255 243 237 233 230 226 225 226 224 221 228 228 228 218 214 216 222 224 226 227 231 236 238 237 237 241 247 247 243 245 250 246 242 243 247 250 254 259 260 260 258 258 261
248 244 240 237 232 232 228 227 229 228 229 228 227 224 218 221 226 226 230 233 235 236 239 246 245 242 249 251 244 234 233 244 251 251 250 253 257 261 259 260 261 259 261
250 249 247 239 238 235 231 229 229 231 231 230 229 231 230 231 229 230 234 236 237 236 239 247 252 249 252 250 246 236 235 236 227 256 256 256 257 257 260 261 265 263 264
243 240 248 247 239 236 235 232 230 233 234 238 237 237 236 236 234 234 237 238 242 241 245 249 252 255 253 250 248 243 241 242 245 250 260 258 263 269 269 274 280 272 264
270 246 239 245 246 240 236 235 234 232 234 233 236 239 239 238 237 239 239 240 243 244 244 249 254 257 262 261 248 248 251 247 247 253 257 266 272 276 274 274 276 275 272
Height
1507 1511 1514 1518 1520 1522 1523 1525 1528 1530 1532 1534 1536 1538 1540 1543 1544 1548 1550 1552 1555 1557 1559 1560 1562 1563 1563 1565 1566 1566 1568 1568 1569 1570 1571 1572 1572 1574 1575 1576 1577 1578 1579
1504 1510 1513 1517 1522 1523 1525 1526 1530 1532 1534 1536 1538 1540 1543 1545 1548 1550 1553 1555 1557 1559 1561 1563 1564 1565 1566 1567 1568 1568 1570 1570 1571 1571 1572 1573 1574 1576 1577 1578 1579 1580 1581
1507 1511 1514 1518 1521 1524 1527 1528 1531 1534 1536 1538 1540 1543 1545 1547 1549 1552 1555 1557 1560 1561 1562 1564 1566 1567 1567 1569 1569 1570 1571 1572 1573 1574 1574 1575 1576 1578 1580 1581 1582 1582 1583
1509 1512 1516 1519 1522 1525 1528 1530 1533 1536 1538 1539 1541 1544 1546 1549 1552 1554 1556 1559 1561 1563 1564 1566 1567 1568 1569 1570 1571 1572 1573 1574 1575 1576 1576 1577 1579 1581 1582 1583 1584 1585 1585
1511 1514 1517 1520 1524 1526 1529 1532 1535 1537 1538 1540 1543 1546 1549 1550 1553 1556 1558 1560 1562 1564 1565 1567 1568 1569 1570 1571 1572 1574 1575 1576 1577 1578 1579 1579 1581 1583 1585 1585 1586 1587 1588
1512 1516 1520 1522 1525 1527 1529 1532 1535 1537 1539 1542 1545 1547 1550 1552 1554 1557 1559 1561 1564 1565 1567 1568 1569 1570 1571 1572 1574 1575 1577 1578 1578 1580 1581 1582 1583 1585 1587 1587 1588 1589 1590
1512 1517 1521 1523 1526 1528 1531 1533 1535 1538 1540 1544 1546 1548 1551 1552 1555 1557 1559 1561 1564 1565 1567 1568 1569 1571 1572 1574 1575 1577 1579 1580 1581 1581 1582 1584 1585 1587 1588 1589 1590 1590 1591
1511 1516 1520 1524 1527 1529 1532 1533 1536 1538 1541 1544 1546 1549 1551 1553 1556 1557 1559 1561 1564 1565 1568 1569 1570 1571 1573 1575 1577 1579 1580 1582 1582 1583 1584 1585 1586 1588 1589 1590 1591 1591 1592
1512 1515 1520 1523 1526 1529 1531 1533 1536 1539 1541 1543 1546 1549 1551 1553 1556 1558 1560 1562 1563 1565 1567 1569 1571 1572 1573 1575 1578 1580 1582 1583 1584 1584 1585 1586 1587 1589 1590 1591 1592 1592 1593
1511 1515 1518 1522 1525 1528 1531 1534 1536 1538 1541 1544 1547 1549 1551 1553 1556 1558 1560 1562 1564 1565 1568 1569 1571 1573 1575 1576 1578 1581 1582 1583 1585 1586 1586 1587 1588 1589 1590 1591 1592 1593 1594
1510 1513 1517 1520 1524 1527 1530 1533 1536 1539 1542 1544 1547 1549 1552 1553 1555 1558 1560 1562 1563 1566 1568 1569 1571 1573 1575 1577 1580 1581 1583 1585 1586 1587 1588 1588 1589 1590 1591 1592 1593 1594 1594
1507 1510 1514 1518 1521 1525 1528 1532 1535 1538 1541 1544 1546 1549 1551 1554 1555 1558 1560 1562 1564 1566 1568 1570 1572 1573 1575 1578 1580 1582 1583 1585 1587 1588 1588 1589 1589 1590 1591 1592 1592 1593 1594
1506 1509 1512 1516 1520 1524 1526 1529 1533 1536 1539 1543 1546 1548 1551 1554 1555 1557 1560 1562 1564 1566 1568 1570 1572 1573 1576 1578 1581 1583 1584 1585 1587 1588 1589 1589 1590 1590 1591 1592 1592 1592 1594
1505 1507 1510 1514 1519 1522 1526 1529 1532 1535 1538 1541 1544 1548 1551 1553 1555 1557 1560 1562 1564 1565 1567 1569 1572 1574 1575 1578 1580 1583 1584 1585 1586 1588 1588 1588 1589 1590 1590 1591 1591 1592 1592
1501 1505 1508 1512 1515 1520 1523 1527 1531 1534 1537 1540 1543 1546 1549 1552 1554 1557 1559 1561 1563 1565 1567 1569 1571 1573 1575 1578 1580 1582 1584 1585 1586 1587 1587 1588 1589 1589 1589 1590 1591 1591 1592
1496 1501 1506 1510 1514 1518 1521 1525 1529 1532 1535 1539 1542 1545 1548 1551 1554 1556 1559 1560 1563 1565 1567 1569 1570 1573 1575 1577 1579 1581 1583 1585 1585 1586 1587 1588 1588 1588 1589 1589 1590 1591 1591
1485 1497 1502 1508 1512 1516 1520 1524 1527 1530 1534 1537 1540 1543 1546 1549 1553 1555 1558 1560 1563 1565 1566 1568 1569 1571 1573 1575 1577 1579 1581 1583 1584 1585 1586 1587 1587 1588 1588 1589 1589 1590 1590
1489 1492 1498 1503 1507 1512 1517 1521 1525 1528 1531 1535 1538 1541 1544 1547 1551 1553 1556 1559 1562 1563 1565 1567 1568 1569 1571 1573 1575 1577 1579 1581 1582 1583 1584 1584 1585 1586 1587 1587 1588 1588 1589
1490 1494 1497 1501 1503 1507 1512 1516 1521 1525 1528 1531 1535 1538 1541 1544 1547 1550 1553 1557 1559 1561 1563 1565 1566 1568 1569 1571 1573 1575 1576 1578 1579 1580 1581 1582 1583 1584 1585 1585 1585 1586 1586
1486 1491 1496 1500 1502 1506 1509 1512 1516 1520 1524 1527 1530 1533 1537 1540 1543 1546 1549 1552 1555 1557 1559 1562 1563 1565 1566 1568 1570 1572 1574 1575 1576 1577 1578 1579 1580 1581 1582 1582 1583 1583 1584
1483 1486 1490 1493 1498 1502 1504 1507 1510 1513 1518 1522 1525 1530 1533 1536 1539 1543 1545 1548 1551 1552 1555 1559 1560 1562 1563 1565 1567 1568 1569 1570 1570 1572 1573 1574 1575 1576 1577 1578 1579 1579 1580
1475 1481 1483 1487 1492 1496 1501 1506 1508 1511 1515 1519 1524 1526 1529 1533 1536 1538 1541 1544 1547 1549 1551 1554 1556 1558 1559 1561 1563 1565 1565 1566 1565 1566 1568 1569 1570 1572 1572 1573 1574 1575 1576
1468 1470 1474 1481 1487 1490 1496 1500 1504 1508 1511 1515 1519 1524 1526 1529 1532 1534 1536 1539 1542 1545 1547 1549 1552 1552 1554 1556 1558 1562 1561 1559 1561 1561 1562 1564 1565 1566 1567 1568 1569 1569 1570
1463 1466 1468 1473 1479 1482 1488 1493 1496 1499 1503 1507 1512 1519 1523 1527 1529 1531 1532 1535 1538 1539 1541 1544 1546 1548 1550 1551 1553 1554 1555 1556 1556 1557 1557 1558 1559 1560 1561 1563 1563 1564 1565
1462 1463 1463 1465 1469 1473 1478 1483 1489 1492 1496 1501 1508 1513 1519 1522 1524 1526 1528 1530 1532 1535 1537 1539 1540 1542 1543 1545 1548 1550 1551 1552 1553 1554 1554 1555 1556 1556 1557 1557 1557 1557 1558
1458 1459 1459 1459 1460 1465 1469 1473 1478 1484 1489 1493 1497 1504 1510 1515 1518 1520 1522 1524 1527 1529 1531 1533 1535 1537 1538 1540 1542 1545 1546 1547 1548 1550 1551 1550 1550 1550 1551 1552 1552 1552 1552